| time (UTC) | temp F | wind direction | speed knots | gust knots | rain 1hr in | rain 24hr in | rain mn in | humidity % | barometer mb |
| 20260906150548 | 89 | 136 | 2.6 | 3.5 | 0.00 | 0.00 | 0.00 | 66 | 1017.8 |
| 20260906150043 | 89 | 303 | 0.9 | 1.7 | 0.00 | 0.00 | 0.00 | 67 | 1017.8 |
| 20260906145542 | 87 | 31 | 0.9 | 2.6 | 0.00 | 0.00 | 0.00 | 70 | 1017.8 |
| 20260906145038 | 88 | 312 | 0.9 | 2.6 | 0.00 | 0.00 | 0.00 | 69 | 1017.8 |
| 20260906144532 | 88 | 194 | 0.9 | 2.6 | 0.00 | 0.00 | 0.00 | 69 | 1017.8 |
| 20260906144027 | 86 | 107 | 0.0 | 1.7 | 0.00 | 0.00 | 0.00 | 72 | 1017.8 |
| 20260906143522 | 86 | 1 | 1.7 | 3.5 | 0.00 | 0.00 | 0.00 | 72 | 1017.8 |
| 20260906143019 | 87 | 252 | 0.0 | 1.7 | 0.00 | 0.00 | 0.00 | 71 | 1017.8 |
| 20260906142518 | 86 | 30 | 0.9 | 1.7 | 0.00 | 0.00 | 0.00 | 72 | 1017.7 |
| 20260906142014 | 86 | 194 | 0.0 | 1.7 | 0.00 | 0.00 | 0.00 | 72 | 1017.8 |
| 20260906141508 | 85 | 317 | 1.7 | 2.6 | 0.00 | 0.00 | 0.00 | 74 | 1017.7 |
| 20260906141003 | 85 | 62 | 1.7 | 1.7 | 0.00 | 0.00 | 0.00 | 74 | 1017.7 |
| 20260906140503 | 85 | 25 | 0.0 | 1.7 | 0.00 | 0.00 | 0.00 | 73 | 1017.7 |
| 20260906140001 | 83 | 318 | 0.9 | 2.6 | 0.00 | 0.00 | 0.00 | 75 | 1017.8 |
| 20260906135459 | 84 | 170 | 0.9 | 2.6 | 0.00 | 0.00 | 0.00 | 74 | 1017.6 |
| 20260906134954 | 83 | 0 | 0.0 | 2.6 | 0.00 | 0.00 | 0.00 | 75 | 1017.7 |
| 20260906134450 | 82 | 97 | 1.7 | 2.6 | 0.00 | 0.00 | 0.00 | 76 | 1017.7 |
| 20260906133950 | 81 | 247 | 0.9 | 2.6 | 0.00 | 0.00 | 0.00 | 78 | 1017.6 |
| 20260906133446 | 80 | 259 | 0.0 | 2.6 | 0.00 | 0.00 | 0.00 | 80 | 1017.7 |
| 20260906132942 | 79 | 150 | 1.7 | 1.7 | 0.00 | 0.00 | 0.00 | 82 | 1017.6 |
| 20260906132437 | 79 | 18 | 1.7 | 2.6 | 0.00 | 0.00 | 0.00 | 83 | 1017.3 |
| 20260906131932 | 78 | 1 | 0.9 | 1.7 | 0.00 | 0.00 | 0.00 | 84 | 1017.5 |
| 20260906131427 | 78 | 2 | 0.9 | 3.5 | 0.00 | 0.00 | 0.00 | 84 | 1017.5 |
| 20260906130923 | 77 | 57 | 1.7 | 3.5 | 0.00 | 0.00 | 0.00 | 85 | 1017.5 |
| 20260906130422 | 77 | 344 | 0.9 | 2.6 | 0.00 | 0.00 | 0.00 | 85 | 1017.5 |
| 20260906125916 | 76 | 345 | 1.7 | 2.6 | 0.00 | 0.00 | 0.00 | 86 | 1017.5 |
| 20260906125414 | 76 | 25 | 0.9 | 2.6 | 0.00 | 0.00 | 0.00 | 86 | 1017.4 |
| 20260906124908 | 75 | 12 | 0.9 | 1.7 | 0.00 | 0.00 | 0.00 | 87 | 1017.4 |
| 20260906124404 | 75 | 29 | 0.9 | 3.5 | 0.00 | 0.00 | 0.00 | 87 | 1017.3 |
| 20260906123904 | 74 | 35 | 1.7 | 1.7 | 0.00 | 0.00 | 0.00 | 88 | 1017.2 |
| 20260906123358 | 74 | 80 | 0.0 | 1.7 | 0.00 | 0.00 | 0.00 | 89 | 1017.1 |
| 20260906122852 | 73 | 42 | 1.7 | 1.7 | 0.00 | 0.00 | 0.00 | 90 | 1017.1 |
| 20260906122347 | 73 | 32 | 0.9 | 1.7 | 0.00 | 0.00 | 0.00 | 90 | 1016.9 |
| 20260906121844 | 72 | 25 | 0.0 | 1.7 | 0.00 | 0.00 | 0.00 | 92 | 1016.9 |
| 20260906121339 | 71 | 99 | 0.0 | 1.7 | 0.00 | 0.00 | 0.00 | 93 | 1017.0 |
| 20260906120836 | 71 | 5 | 1.7 | 1.7 | 0.00 | 0.00 | 0.00 | 94 | 1017.0 |
| 20260906120332 | 70 | 262 | 0.0 | 0.9 | 0.00 | 0.00 | 0.00 | 94 | 1016.9 |
| 20260906115828 | 70 | 12 | 0.9 | 1.7 | 0.00 | 0.00 | 0.00 | 94 | 1016.8 |
| 20260906115328 | 70 | 15 | 0.0 | 0.9 | 0.00 | 0.00 | 0.00 | 94 | 1017.0 |
| 20260906114827 | 70 | 329 | 0.0 | 0.9 | 0.00 | 0.00 | 0.00 | 95 | 1016.8 |
| 20260906114322 | 70 | 5 | 0.0 | 0.9 | 0.00 | 0.00 | 0.00 | 95 | 1016.9 |
| 20260906113817 | 71 | 319 | 0.0 | 0.0 | 0.00 | 0.00 | 0.00 | 94 | 1016.6 |
| 20260906113317 | 71 | 269 | 0.0 | 1.7 | 0.00 | 0.00 | 0.00 | 94 | 1016.8 |
| 20260906112812 | 71 | 265 | 0.9 | 1.7 | 0.00 | 0.00 | 0.00 | 93 | 1016.8 |
| 20260906112308 | 72 | 286 | 0.9 | 0.9 | 0.00 | 0.00 | 0.00 | 94 | 1016.8 |
| 20260906111808 | 71 | 275 | 1.7 | 1.7 | 0.00 | 0.00 | 0.00 | 94 | 1016.6 |
| 20260906111307 | 71 | 275 | 0.0 | 0.9 | 0.00 | 0.00 | 0.00 | 94 | 1016.6 |
| 20260906110802 | 71 | 287 | 0.9 | 0.9 | 0.00 | 0.00 | 0.00 | 94 | 1016.7 |
| 20260906110258 | 71 | 274 | 0.0 | 1.7 | 0.00 | 0.00 | 0.00 | 94 | 1016.7 |
| 20260906105757 | 71 | 274 | 0.0 | 1.7 | 0.00 | 0.00 | 0.00 | 93 | 1016.7 |
| 20260906105253 | 71 | 245 | 0.0 | 0.9 | 0.00 | 0.00 | 0.00 | 94 | 1016.7 |
| 20260906104748 | 71 | 113 | 0.0 | 1.7 | 0.00 | 0.00 | 0.00 | 94 | 1016.6 |
| 20260906104248 | 71 | 243 | 0.0 | 1.7 | 0.00 | 0.00 | 0.00 | 93 | 1016.6 |
| 20260906103746 | 71 | 287 | 0.0 | 0.9 | 0.00 | 0.00 | 0.00 | 93 | 1016.6 |
| 20260906103245 | 71 | 334 | 0.0 | 1.7 | 0.00 | 0.00 | 0.00 | 94 | 1016.5 |
| 20260906102742 | 71 | 22 | 0.0 | 1.7 | 0.00 | 0.00 | 0.00 | 94 | 1016.7 |
| 20260906102240 | 71 | 321 | 0.0 | 0.9 | 0.00 | 0.00 | 0.00 | 94 | 1016.4 |
| 20260906101736 | 71 | 269 | 0.0 | 0.0 | 0.00 | 0.00 | 0.00 | 94 | 1016.5 |
| 20260906101236 | 71 | 320 | 0.0 | 1.7 | 0.00 | 0.00 | 0.00 | 94 | 1016.2 |
| 20260906100732 | 71 | 313 | 1.7 | 1.7 | 0.00 | 0.00 | 0.00 | 94 | 1016.2 |
| 20260906100231 | 71 | 322 | 0.0 | 1.7 | 0.00 | 0.00 | 0.00 | 93 | 1016.5 |
| 20260906095727 | 71 | 294 | 1.7 | 1.7 | 0.00 | 0.00 | 0.00 | 93 | 1016.4 |
| 20260906095221 | 72 | 297 | 0.0 | 0.0 | 0.00 | 0.00 | 0.00 | 93 | 1016.0 |
| 20260906094720 | 72 | 99 | 0.0 | 0.9 | 0.00 | 0.00 | 0.00 | 93 | 1016.1 |
| 20260906094216 | 72 | 0 | 0.0 | 0.9 | 0.00 | 0.00 | 0.00 | 93 | 1016.1 |
| 20260906093712 | 72 | 230 | 0.0 | 1.7 | 0.00 | 0.00 | 0.00 | 93 | 1015.9 |
| 20260906093208 | 72 | 290 | 0.0 | 1.7 | 0.00 | 0.00 | 0.00 | 93 | 1016.0 |
| 20260906092702 | 72 | 269 | 0.0 | 1.7 | 0.00 | 0.00 | 0.00 | 92 | 1016.0 |
| 20260906092202 | 72 | 166 | 0.0 | 1.7 | 0.00 | 0.00 | 0.00 | 91 | 1016.0 |
| 20260906091658 | 73 | 152 | 0.9 | 1.7 | 0.00 | 0.00 | 0.00 | 91 | 1016.0 |
| 20260906091154 | 72 | 230 | 0.0 | 0.0 | 0.00 | 0.00 | 0.00 | 91 | 1016.1 |
| 20260906090650 | 72 | 217 | 0.0 | 0.0 | 0.00 | 0.00 | 0.00 | 91 | 1016.0 |
| 20260906090149 | 72 | 111 | 0.0 | 0.0 | 0.00 | 0.00 | 0.00 | 91 | 1015.8 |
| 20260906085649 | 72 | 290 | 0.0 | 0.0 | 0.00 | 0.00 | 0.00 | 91 | 1015.8 |
| 20260906085149 | 73 | 304 | 0.0 | 0.9 | 0.00 | 0.00 | 0.00 | 91 | 1015.8 |
| 20260906084649 | 73 | 291 | 0.0 | 1.7 | 0.00 | 0.00 | 0.00 | 90 | 1016.0 |
| 20260906084148 | 74 | 246 | 1.7 | 1.7 | 0.00 | 0.00 | 0.00 | 89 | 1015.7 |
| 20260906083643 | 74 | 147 | 0.0 | 0.0 | 0.00 | 0.00 | 0.00 | 87 | 1015.8 |
| 20260906083139 | 75 | 217 | 0.0 | 0.0 | 0.00 | 0.00 | 0.00 | 87 | 1015.7 |
| 20260906082634 | 75 | 218 | 0.0 | 0.9 | 0.00 | 0.00 | 0.00 | 87 | 1015.8 |
| 20260906082130 | 75 | 189 | 0.0 | 0.9 | 0.00 | 0.00 | 0.00 | 87 | 1015.4 |
| 20260906081626 | 75 | 44 | 0.0 | 1.7 | 0.00 | 0.00 | 0.00 | 87 | 1015.6 |
| 20260906081120 | 74 | 312 | 0.9 | 2.6 | 0.00 | 0.00 | 0.00 | 89 | 1015.6 |
| 20260906080617 | 73 | 303 | 0.0 | 1.7 | 0.00 | 0.00 | 0.00 | 90 | 1015.7 |
| 20260906080113 | 73 | 328 | 1.7 | 1.7 | 0.00 | 0.00 | 0.00 | 90 | 1015.8 |
| 20260906075606 | 74 | 224 | 0.0 | 0.0 | 0.00 | 0.00 | 0.00 | 90 | 1015.5 |
| 20260906075101 | 74 | 249 | 0.0 | 0.0 | 0.00 | 0.00 | 0.00 | 91 | 1015.6 |
| 20260906074556 | 73 | 340 | 0.9 | 0.9 | 0.00 | 0.00 | 0.00 | 91 | 1015.7 |
| 20260906074055 | 73 | 310 | 0.0 | 1.7 | 0.00 | 0.00 | 0.00 | 93 | 1015.8 |
| 20260906073550 | 72 | 259 | 0.9 | 1.7 | 0.00 | 0.00 | 0.00 | 92 | 1015.8 |
| 20260906073047 | 73 | 299 | 0.0 | 0.9 | 0.00 | 0.00 | 0.00 | 91 | 1015.9 |
| 20260906072546 | 73 | 320 | 0.9 | 1.7 | 0.00 | 0.00 | 0.00 | 91 | 1015.9 |
| 20260906072043 | 73 | 309 | 0.0 | 0.9 | 0.00 | 0.00 | 0.00 | 91 | 1015.9 |
| 20260906071539 | 73 | 217 | 0.0 | 0.0 | 0.00 | 0.00 | 0.00 | 91 | 1016.0 |
| 20260906071033 | 73 | 263 | 0.9 | 1.7 | 0.00 | 0.00 | 0.00 | 91 | 1016.0 |
| 20260906070530 | 73 | 313 | 0.9 | 1.7 | 0.00 | 0.00 | 0.00 | 90 | 1015.9 |
| 20260906070025 | 74 | 319 | 0.9 | 0.9 | 0.00 | 0.00 | 0.00 | 89 | 1016.0 |
| 20260906065524 | 74 | 166 | 0.0 | 0.0 | 0.00 | 0.00 | 0.00 | 89 | 1015.9 |
| 20260906065020 | 74 | 322 | 0.0 | 0.0 | 0.00 | 0.00 | 0.00 | 89 | 1016.0 |
| 20260906064517 | 74 | 322 | 0.0 | 0.0 | 0.00 | 0.00 | 0.00 | 89 | 1016.1 |
| 20260906064017 | 74 | 269 | 0.0 | 0.0 | 0.00 | 0.00 | 0.00 | 89 | 1016.4 |
| 20260906063512 | 74 | 227 | 0.0 | 1.7 | 0.00 | 0.00 | 0.00 | 89 | 1016.2 |
| 20260906063008 | 74 | 317 | 0.0 | 0.0 | 0.00 | 0.00 | 0.00 | 90 | 1016.5 |
| 20260906062503 | 74 | 235 | 0.0 | 0.0 | 0.00 | 0.00 | 0.00 | 90 | 1016.2 |
| 20260906061957 | 73 | 247 | 0.9 | 0.9 | 0.00 | 0.00 | 0.00 | 90 | 1016.2 |
| 20260906061454 | 73 | 321 | 0.9 | 1.7 | 0.00 | 0.00 | 0.00 | 90 | 1016.4 |
| 20260906060953 | 74 | 304 | 0.9 | 1.7 | 0.00 | 0.00 | 0.00 | 90 | 1016.1 |
| 20260906060450 | 74 | 262 | 0.9 | 1.7 | 0.00 | 0.00 | 0.00 | 89 | 1016.5 |
| 20260906055947 | 75 | 269 | 0.0 | 0.9 | 0.00 | 0.00 | 0.00 | 88 | 1016.2 |
| 20260906055442 | 75 | 331 | 0.9 | 0.9 | 0.00 | 0.00 | 0.00 | 87 | 1016.4 |
| 20260906054937 | 75 | 269 | 0.0 | 0.9 | 0.00 | 0.00 | 0.00 | 88 | 1016.5 |
| 20260906054432 | 75 | 336 | 0.0 | 0.9 | 0.00 | 0.00 | 0.00 | 87 | 1016.4 |
| 20260906053927 | 75 | 327 | 0.9 | 0.9 | 0.00 | 0.00 | 0.00 | 87 | 1016.2 |
| 20260906053424 | 75 | 321 | 0.9 | 0.9 | 0.00 | 0.00 | 0.00 | 86 | 1016.1 |
| 20260906052919 | 75 | 322 | 0.0 | 0.0 | 0.00 | 0.00 | 0.00 | 86 | 1016.1 |
| 20260906052415 | 75 | 322 | 0.0 | 0.0 | 0.00 | 0.00 | 0.00 | 86 | 1016.1 |
| 20260906051912 | 75 | 283 | 0.0 | 0.9 | 0.00 | 0.00 | 0.00 | 87 | 1016.1 |
| 20260906051412 | 75 | 315 | 0.0 | 0.9 | 0.00 | 0.00 | 0.00 | 88 | 1016.0 |
| 20260906050908 | 75 | 269 | 0.0 | 0.9 | 0.00 | 0.00 | 0.00 | 88 | 1016.2 |
| 20260906050408 | 75 | 293 | 0.0 | 0.9 | 0.00 | 0.00 | 0.00 | 88 | 1016.4 |
| 20260906045907 | 75 | 284 | 0.0 | 1.7 | 0.00 | 0.00 | 0.00 | 88 | 1016.2 |
| 20260906045406 | 75 | 308 | 0.0 | 0.9 | 0.00 | 0.00 | 0.00 | 87 | 1016.2 |
| 20260906044903 | 75 | 271 | 0.9 | 1.7 | 0.00 | 0.00 | 0.00 | 87 | 1016.1 |
| 20260906044402 | 76 | 297 | 0.0 | 0.9 | 0.00 | 0.00 | 0.00 | 86 | 1016.1 |
| 20260906043858 | 76 | 317 | 1.7 | 1.7 | 0.00 | 0.00 | 0.00 | 86 | 1016.2 |
| 20260906043355 | 76 | 269 | 0.9 | 1.7 | 0.00 | 0.00 | 0.00 | 85 | 1016.4 |
| 20260906042855 | 76 | 344 | 1.7 | 2.6 | 0.00 | 0.00 | 0.00 | 85 | 1016.0 |
| 20260906042353 | 76 | 324 | 0.9 | 1.7 | 0.00 | 0.00 | 0.00 | 84 | 1016.1 |
| 20260906041849 | 77 | 142 | 0.0 | 1.7 | 0.00 | 0.00 | 0.00 | 83 | 1016.1 |
| 20260906041345 | 76 | 297 | 0.0 | 0.0 | 0.00 | 0.00 | 0.00 | 86 | 1016.4 |
| 20260906040845 | 76 | 269 | 0.0 | 0.9 | 0.00 | 0.00 | 0.00 | 85 | 1016.1 |
| 20260906040340 | 77 | 287 | 0.9 | 1.7 | 0.00 | 0.00 | 0.00 | 85 | 1016.2 |
| 20260906035835 | 78 | 321 | 0.9 | 1.7 | 0.00 | 0.00 | 0.00 | 82 | 1016.1 |
| 20260906035331 | 77 | 6 | 0.0 | 0.9 | 0.00 | 0.00 | 0.00 | 81 | 1016.0 |
| 20260906034827 | 77 | 296 | 0.0 | 0.9 | 0.00 | 0.00 | 0.00 | 81 | 1016.0 |
| 20260906034327 | 78 | 254 | 1.7 | 1.7 | 0.00 | 0.00 | 0.00 | 81 | 1016.0 |
| 20260906033823 | 78 | 240 | 0.0 | 1.7 | 0.00 | 0.00 | 0.00 | 80 | 1016.2 |
| 20260906033321 | 78 | 246 | 0.9 | 0.9 | 0.00 | 0.00 | 0.00 | 80 | 1016.1 |
| 20260906032818 | 79 | 15 | 0.0 | 0.9 | 0.00 | 0.00 | 0.00 | 77 | 1016.1 |
| 20260906032314 | 79 | 309 | 0.0 | 0.9 | 0.00 | 0.00 | 0.00 | 77 | 1015.9 |
| 20260906031809 | 79 | 0 | 0.0 | 0.9 | 0.00 | 0.00 | 0.00 | 78 | 1015.9 |
| 20260906031304 | 79 | 336 | 0.0 | 0.9 | 0.00 | 0.00 | 0.00 | 78 | 1015.8 |
| 20260906030804 | 79 | 333 | 0.0 | 0.9 | 0.00 | 0.00 | 0.00 | 76 | 1015.8 |
| 20260906030259 | 79 | 309 | 0.0 | 0.9 | 0.00 | 0.00 | 0.00 | 77 | 1015.9 |
| 20260906025759 | 80 | 322 | 0.0 | 1.7 | 0.00 | 0.00 | 0.00 | 77 | 1016.0 |
| 20260906025253 | 80 | 336 | 0.9 | 1.7 | 0.00 | 0.00 | 0.00 | 76 | 1015.6 |
| 20260906024752 | 80 | 309 | 0.0 | 0.9 | 0.00 | 0.00 | 0.00 | 76 | 1015.8 |
| 20260906024251 | 80 | 321 | 0.0 | 1.7 | 0.00 | 0.00 | 0.00 | 77 | 1016.0 |
| 20260906023747 | 80 | 290 | 0.0 | 1.7 | 0.00 | 0.00 | 0.00 | 77 | 1015.7 |
| 20260906023242 | 80 | 304 | 0.0 | 0.9 | 0.00 | 0.00 | 0.00 | 75 | 1015.8 |
| 20260906022738 | 80 | 345 | 0.0 | 0.0 | 0.00 | 0.00 | 0.00 | 79 | 1015.5 |
| 20260906022233 | 80 | 50 | 0.0 | 0.0 | 0.00 | 0.00 | 0.00 | 78 | 1015.6 |
| 20260906021729 | 80 | 218 | 0.0 | 0.9 | 0.00 | 0.00 | 0.00 | 78 | 1015.4 |
| 20260906021227 | 81 | 326 | 0.0 | 1.7 | 0.00 | 0.00 | 0.00 | 78 | 1015.5 |
| 20260906020723 | 80 | 122 | 1.7 | 7.0 | 0.00 | 0.00 | 0.00 | 79 | 1015.4 |
| 20260906020217 | 82 | 52 | 0.0 | 0.9 | 0.00 | 0.00 | 0.00 | 75 | 1015.2 |
| 20260906015712 | 82 | 269 | 0.0 | 0.0 | 0.00 | 0.00 | 0.00 | 75 | 1015.2 |
| 20260906015210 | 82 | 309 | 0.0 | 0.0 | 0.00 | 0.00 | 0.00 | 76 | 1015.1 |
| 20260906014710 | 82 | 52 | 0.0 | 0.9 | 0.00 | 0.00 | 0.00 | 76 | 1014.9 |
| 20260906014207 | 82 | 37 | 0.0 | 0.9 | 0.00 | 0.00 | 0.00 | 76 | 1015.0 |
| 20260906013702 | 83 | 20 | 0.9 | 0.9 | 0.00 | 0.00 | 0.00 | 76 | 1015.0 |
| 20260906013157 | 83 | 309 | 0.0 | 0.0 | 0.00 | 0.00 | 0.00 | 75 | 1014.8 |
| 20260906012658 | 83 | 309 | 0.0 | 0.0 | 0.00 | 0.00 | 0.00 | 75 | 1014.7 |
| 20260906012157 | 84 | 129 | 0.0 | 0.0 | 0.00 | 0.00 | 0.00 | 74 | 1014.5 |
| 20260906011653 | 84 | 129 | 0.0 | 0.0 | 0.00 | 0.00 | 0.00 | 74 | 1014.6 |
| 20260906011148 | 84 | 76 | 0.0 | 0.0 | 0.00 | 0.00 | 0.00 | 73 | 1014.5 |
| 20260906010643 | 84 | 242 | 0.0 | 0.0 | 0.00 | 0.00 | 0.00 | 73 | 1014.6 |
| 20260906010139 | 85 | 15 | 0.0 | 0.9 | 0.00 | 0.00 | 0.00 | 72 | 1014.4 |
| 20260906005639 | 85 | 38 | 0.9 | 0.9 | 0.00 | 0.00 | 0.00 | 74 | 1014.4 |
| 20260906005138 | 86 | 297 | 0.0 | 0.0 | 0.00 | 0.00 | 0.00 | 71 | 1014.5 |
| 20260906004637 | 86 | 308 | 0.0 | 0.0 | 0.00 | 0.00 | 0.00 | 69 | 1014.3 |
| 20260906004132 | 87 | 235 | 0.0 | 0.0 | 0.00 | 0.00 | 0.00 | 67 | 1014.5 |
| 20260906003627 | 87 | 255 | 0.0 | 1.7 | 0.00 | 0.00 | 0.00 | 64 | 1014.3 |
| 20260906003123 | 88 | 247 | 1.7 | 1.7 | 0.00 | 0.00 | 0.00 | 61 | 1014.4 |
| 20260906002618 | 88 | 240 | 0.0 | 0.0 | 0.00 | 0.00 | 0.00 | 61 | 1014.5 |
| 20260906002113 | 89 | 242 | 0.0 | 0.0 | 0.00 | 0.00 | 0.00 | 61 | 1014.5 |
| 20260906001608 | 89 | 309 | 0.0 | 0.0 | 0.00 | 0.00 | 0.00 | 60 | 1014.7 |
| 20260906001102 | 90 | 309 | 0.0 | 0.0 | 0.00 | 0.00 | 0.00 | 60 | 1014.6 |
| 20260906000558 | 90 | 304 | 0.0 | 0.0 | 0.00 | 0.00 | 0.00 | 58 | 1014.5 |
| 20260906000053 | 91 | 297 | 0.0 | 0.0 | 0.00 | 0.00 | 0.00 | 57 | 1014.7 |
| 20260905235552 | 92 | 230 | 0.0 | 0.0 | 0.00 | 0.00 | 0.00 | 57 | 1014.8 |
| 20260905235048 | 92 | 142 | 0.0 | 0.9 | 0.00 | 0.00 | 0.00 | 55 | 1014.8 |
| 20260905234543 | 93 | 333 | 0.0 | 0.0 | 0.00 | 0.00 | 0.00 | 52 | 1014.6 |
| 20260905234038 | 94 | 95 | 0.9 | 2.6 | 0.00 | 0.00 | 0.00 | 50 | 1014.8 |
| 20260905233532 | 94 | 194 | 0.0 | 0.9 | 0.00 | 0.00 | 0.00 | 52 | 1014.8 |
| 20260905233032 | 95 | 164 | 0.9 | 1.7 | 0.00 | 0.00 | 0.00 | 49 | 1014.8 |
| 20260905232528 | 95 | 217 | 1.7 | 1.7 | 0.00 | 0.00 | 0.00 | 51 | 1014.8 |
| 20260905232023 | 98 | 164 | 0.0 | 0.9 | 0.00 | 0.00 | 0.00 | 46 | 1014.7 |
| 20260905231518 | 97 | 142 | 0.0 | 0.0 | 0.00 | 0.00 | 0.00 | 48 | 1014.8 |
| 20260905231015 | 96 | 161 | 0.0 | 1.7 | 0.00 | 0.00 | 0.00 | 48 | 1014.8 |
| 20260905230514 | 97 | 143 | 0.0 | 1.7 | 0.00 | 0.00 | 0.00 | 47 | 1014.7 |
| 20260905230012 | 98 | 161 | 0.9 | 1.7 | 0.00 | 0.00 | 0.00 | 45 | 1014.6 |
| 20260905225507 | 97 | 202 | 0.0 | 1.7 | 0.00 | 0.00 | 0.00 | 45 | 1014.5 |
| 20260905225002 | 97 | 95 | 0.0 | 1.7 | 0.00 | 0.00 | 0.00 | 45 | 1014.5 |
| 20260905224457 | 96 | 139 | 0.9 | 1.7 | 0.00 | 0.00 | 0.00 | 47 | 1014.4 |
| 20260905223956 | 94 | 180 | 0.0 | 0.0 | 0.00 | 0.00 | 0.00 | 50 | 1014.8 |
| 20260905223454 | 93 | 6 | 0.0 | 0.9 | 0.00 | 0.00 | 0.00 | 53 | 1014.6 |
| 20260905222949 | 94 | 15 | 0.0 | 0.0 | 0.00 | 0.00 | 0.00 | 50 | 1014.6 |
| 20260905222449 | 94 | 195 | 0.0 | 0.9 | 0.00 | 0.00 | 0.00 | 50 | 1014.5 |
| 20260905221945 | 94 | 229 | 0.0 | 1.7 | 0.00 | 0.00 | 0.00 | 49 | 1014.8 |
| 20260905221441 | 95 | 214 | 0.0 | 1.7 | 0.00 | 0.00 | 0.00 | 49 | 1014.6 |
| 20260905220937 | 95 | 294 | 0.0 | 1.7 | 0.00 | 0.00 | 0.00 | 49 | 1014.8 |
| 20260905220433 | 96 | 292 | 0.0 | 1.7 | 0.00 | 0.00 | 0.00 | 46 | 1014.7 |
| 20260905215932 | 97 | 255 | 0.9 | 1.7 | 0.00 | 0.00 | 0.00 | 45 | 1014.8 |
| 20260905215427 | 99 | 68 | 0.9 | 2.6 | 0.00 | 0.00 | 0.00 | 43 | 1014.8 |
| 20260905214924 | 97 | 255 | 1.7 | 1.7 | 0.00 | 0.00 | 0.00 | 44 | 1014.9 |
| 20260905214420 | 96 | 245 | 7.8 | 8.7 | 0.00 | 0.00 | 0.00 | 46 | 1015.0 |
| 20260905213919 | 97 | 206 | 1.7 | 2.6 | 0.00 | 0.00 | 0.00 | 46 | 1015.0 |
| 20260905213416 | 95 | 243 | 2.6 | 5.2 | 0.00 | 0.00 | 0.00 | 48 | 1015.0 |
| 20260905212911 | 93 | 249 | 2.6 | 5.2 | 0.00 | 0.00 | 0.00 | 49 | 1015.0 |
| 20260905212406 | 94 | 180 | 1.7 | 2.6 | 0.00 | 0.00 | 0.00 | 48 | 1014.9 |
| 20260905211905 | 93 | 145 | 0.0 | 1.7 | 0.00 | 0.00 | 0.00 | 50 | 1014.7 |
| 20260905211401 | 93 | 132 | 0.9 | 2.6 | 0.00 | 0.00 | 0.00 | 50 | 1014.6 |
| 20260905210857 | 93 | 89 | 0.0 | 1.7 | 0.00 | 0.00 | 0.00 | 50 | 1014.8 |
| 20260905210356 | 92 | 138 | 0.9 | 1.7 | 0.00 | 0.00 | 0.00 | 51 | 1014.7 |
| 20260905205856 | 92 | 131 | 1.7 | 2.6 | 0.00 | 0.00 | 0.00 | 52 | 1014.9 |
| 20260905205351 | 92 | 26 | 0.9 | 1.7 | 0.00 | 0.00 | 0.00 | 52 | 1015.1 |
| 20260905204850 | 92 | 111 | 0.9 | 1.7 | 0.00 | 0.00 | 0.00 | 52 | 1015.1 |
| 20260905204346 | 92 | 87 | 0.0 | 1.7 | 0.00 | 0.00 | 0.00 | 52 | 1015.1 |
| 20260905203844 | 93 | 348 | 0.9 | 1.7 | 0.00 | 0.00 | 0.00 | 51 | 1015.2 |
| 20260905203341 | 93 | 116 | 0.9 | 1.7 | 0.00 | 0.00 | 0.00 | 51 | 1015.2 |
| 20260905202836 | 93 | 101 | 1.7 | 3.5 | 0.00 | 0.00 | 0.00 | 51 | 1015.2 |
| 20260905202331 | 96 | 154 | 1.7 | 5.2 | 0.00 | 0.00 | 0.00 | 47 | 1015.2 |
| 20260905201827 | 95 | 43 | 2.6 | 3.5 | 0.00 | 0.00 | 0.00 | 47 | 1015.2 |
| 20260905201323 | 93 | 2 | 3.5 | 7.8 | 0.00 | 0.00 | 0.00 | 50 | 1015.3 |
| 20260905200822 | 97 | 14 | 3.5 | 9.6 | 0.00 | 0.00 | 0.00 | 46 | 1015.7 |
| 20260905200318 | 100 | 128 | 2.6 | 3.5 | 0.00 | 0.00 | 0.00 | 38 | 1015.4 |
| 20260905195815 | 102 | 163 | 1.7 | 2.6 | 0.00 | 0.00 | 0.00 | 37 | 1015.4 |
| 20260905195311 | 101 | 178 | 1.7 | 2.6 | 0.00 | 0.00 | 0.00 | 38 | 1015.4 |
| 20260905194807 | 98 | 184 | 0.0 | 2.6 | 0.00 | 0.00 | 0.00 | 40 | 1015.3 |
| 20260905194306 | 98 | 197 | 1.7 | 2.6 | 0.00 | 0.00 | 0.00 | 41 | 1015.6 |
| 20260905193806 | 98 | 125 | 0.9 | 1.7 | 0.00 | 0.00 | 0.00 | 41 | 1015.6 |
| 20260905193301 | 97 | 208 | 1.7 | 3.5 | 0.00 | 0.00 | 0.00 | 42 | 1015.6 |
| 20260905192756 | 98 | 155 | 1.7 | 2.6 | 0.00 | 0.00 | 0.00 | 41 | 1016.1 |
| 20260905192252 | 98 | 125 | 1.7 | 2.6 | 0.00 | 0.00 | 0.00 | 42 | 1015.7 |
| 20260905191751 | 97 | 232 | 6.1 | 7.0 | 0.00 | 0.00 | 0.00 | 42 | 1016.0 |
| 20260905191250 | 97 | 318 | 0.9 | 4.3 | 0.00 | 0.00 | 0.00 | 43 | 1015.9 |
| 20260905190749 | 99 | 181 | 1.7 | 3.5 | 0.00 | 0.00 | 0.00 | 41 | 1016.1 |
| 20260905190248 | 100 | 106 | 1.7 | 3.5 | 0.00 | 0.00 | 0.00 | 40 | 1016.0 |
| 20260905185747 | 102 | 81 | 2.6 | 3.5 | 0.00 | 0.00 | 0.00 | 40 | 1016.1 |
| 20260905185242 | 102 | 104 | 3.5 | 6.1 | 0.00 | 0.00 | 0.00 | 39 | 1016.1 |
| 20260905184736 | 100 | 133 | 2.6 | 4.3 | 0.00 | 0.00 | 0.00 | 41 | 1016.1 |
| 20260905184236 | 100 | 151 | 2.6 | 3.5 | 0.00 | 0.00 | 0.00 | 42 | 1016.2 |
| 20260905183735 | 100 | 144 | 4.3 | 4.3 | 0.00 | 0.00 | 0.00 | 42 | 1016.2 |
| 20260905183231 | 99 | 103 | 1.7 | 4.3 | 0.00 | 0.00 | 0.00 | 41 | 1016.6 |
| 20260905182730 | 98 | 182 | 3.5 | 4.3 | 0.00 | 0.00 | 0.00 | 44 | 1016.6 |
| 20260905182230 | 98 | 116 | 0.9 | 2.6 | 0.00 | 0.00 | 0.00 | 42 | 1016.6 |
| 20260905181725 | 96 | 156 | 0.0 | 3.5 | 0.00 | 0.00 | 0.00 | 46 | 1016.5 |
| 20260905181224 | 93 | 171 | 0.9 | 3.5 | 0.00 | 0.00 | 0.00 | 50 | 1016.8 |
| 20260905180720 | 93 | 97 | 0.9 | 1.7 | 0.00 | 0.00 | 0.00 | 52 | 1016.9 |
| 20260905180215 | 95 | 148 | 1.7 | 2.6 | 0.00 | 0.00 | 0.00 | 46 | 1016.7 |
| 20260905175714 | 96 | 110 | 0.0 | 1.7 | 0.00 | 0.00 | 0.00 | 44 | 1016.9 |
| 20260905175209 | 96 | 34 | 1.7 | 1.7 | 0.00 | 0.00 | 0.00 | 44 | 1016.9 |
| 20260905174704 | 96 | 334 | 2.6 | 3.5 | 0.00 | 0.00 | 0.00 | 43 | 1016.9 |
| 20260905174200 | 96 | 41 | 0.9 | 1.7 | 0.00 | 0.00 | 0.00 | 43 | 1017.0 |
| 20260905173656 | 96 | 357 | 1.7 | 5.2 | 0.00 | 0.00 | 0.00 | 43 | 1017.1 |
| 20260905173151 | 97 | 6 | 5.2 | 6.1 | 0.00 | 0.00 | 0.00 | 42 | 1017.1 |
| 20260905172650 | 98 | 20 | 3.5 | 5.2 | 0.00 | 0.00 | 0.00 | 42 | 1017.2 |
| 20260905172145 | 102 | 338 | 1.7 | 3.5 | 0.00 | 0.00 | 0.00 | 39 | 1017.1 |
| 20260905171641 | 101 | 178 | 1.7 | 1.7 | 0.00 | 0.00 | 0.00 | 39 | 1017.1 |
| 20260905171137 | 99 | 326 | 3.5 | 3.5 | 0.00 | 0.00 | 0.00 | 41 | 1017.3 |
| 20260905170634 | 99 | 141 | 1.7 | 2.6 | 0.00 | 0.00 | 0.00 | 41 | 1017.2 |
| 20260905170129 | 99 | 120 | 2.6 | 2.6 | 0.00 | 0.00 | 0.00 | 41 | 1017.4 |
| 20260905165628 | 96 | 234 | 5.2 | 6.1 | 0.00 | 0.00 | 0.00 | 44 | 1017.3 |
| 20260905165124 | 98 | 196 | 1.7 | 4.3 | 0.00 | 0.00 | 0.00 | 42 | 1017.5 |
| 20260905164619 | 98 | 329 | 0.0 | 1.7 | 0.00 | 0.00 | 0.00 | 43 | 1017.5 |
| 20260905164118 | 98 | 226 | 1.7 | 4.3 | 0.00 | 0.00 | 0.00 | 42 | 1017.6 |
| 20260905163615 | 98 | 158 | 3.5 | 4.3 | 0.00 | 0.00 | 0.00 | 43 | 1017.6 |
| 20260905163111 | 99 | 195 | 0.0 | 1.7 | 0.00 | 0.00 | 0.00 | 42 | 1017.7 |
| 20260905162607 | 97 | 152 | 3.5 | 3.5 | 0.00 | 0.00 | 0.00 | 43 | 1017.7 |
| 20260905162106 | 96 | 218 | 1.7 | 3.5 | 0.00 | 0.00 | 0.00 | 44 | 1017.6 |
| 20260905161606 | 96 | 357 | 5.2 | 5.2 | 0.00 | 0.00 | 0.00 | 45 | 1017.7 |
| 20260905161104 | 97 | 246 | 3.5 | 7.0 | 0.00 | 0.00 | 0.00 | 44 | 1017.7 |
| 20260905160603 | 96 | 35 | 1.7 | 3.5 | 0.00 | 0.00 | 0.00 | 45 | 1017.6 |
| 20260905155557 | 95 | 240 | 1.7 | 4.3 | 0.00 | 0.00 | 0.00 | 48 | 1017.7 |
| 20260905155056 | 94 | 5 | 1.7 | 3.5 | 0.00 | 0.00 | 0.00 | 49 | 1017.8 |
| 20260905154551 | 93 | 237 | 2.6 | 5.2 | 0.00 | 0.00 | 0.00 | 52 | 1017.9 |
| 20260905154046 | 94 | 236 | 2.6 | 3.5 | 0.00 | 0.00 | 0.00 | 52 | 1017.9 |
| 20260905153542 | 93 | 0 | 0.9 | 2.6 | 0.00 | 0.00 | 0.00 | 53 | 1017.9 |
| 20260905153042 | 93 | 14 | 1.7 | 2.6 | 0.00 | 0.00 | 0.00 | 53 | 1017.8 |
| 20260905152537 | 92 | 224 | 3.5 | 7.0 | 0.00 | 0.00 | 0.00 | 54 | 1017.7 |
| 20260905152032 | 91 | 201 | 0.9 | 7.0 | 0.00 | 0.00 | 0.00 | 56 | 1017.8 |
| 20260905151528 | 91 | 234 | 4.3 | 4.3 | 0.00 | 0.00 | 0.00 | 56 | 1017.8 |
| 20260905151023 | 91 | 233 | 3.5 | 4.3 | 0.00 | 0.00 | 0.00 | 57 | 1017.7 |